Weather History for Menomonie, WI

Change the Weather History Date:

Thursday, July 19, 2012

  Actual Average (KEAU) Record (KEAU)
Temperature  
Mean Temperature 72 °F 72 °F  
Max Temperature 80 °F 83 °F 103 °F (1901)
Min Temperature 64 °F 60 °F 46 °F (1929)
Degree Days  
Heating Degree Days 0 0  
Month to date heating degree days 2  
Since 1 June heating degree days 64  
Since 1 July heating degree days 2  
Cooling Degree Days 7 7  
Month to date cooling degree days 132  
Year to date cooling degree days 284  
Since 1 June cooling degree days 252  
Growing Degree Days 22 (Base 50)    
Moisture  
Dew Point 62 °F    
Average Humidity 72    
Maximum Humidity 94    
Minimum Humidity 48    
Precipitation  
Precipitation 0.00 in 0.13 in 1.77 in (1997)
Month to date precipitation 2.36  
Year to date precipitation 16.13  
Snow  
Snow 0.00 in 0.00 in 0.00 in ()
Month to date snowfall 0.0  
Since 1 June snowfall 0.0  
Since 1 July snowfall 0.0  
Snow Depth -    
Sea Level Pressure  
Sea Level Pressure 30.02 in    
Wind  
Wind Speed 5 mph (NE)    
Max Wind Speed 9 mph    
Max Gust Speed -    
Visibility 10 miles    
Events      
T = Trace of Precipitation, MM = Missing Value Source: NWS Daily Summary

Daily Weather History Graph

Daily Weather History Graph

Search for Another Location

Airport:

Trip Planner

Search our weather history database for the weather conditions in past years. The results will help you decide how hot, cold, wet, or windy it might be!

Date:

Astronomy

Jul. 19, 2012 Rise Set
Actual Time 5:39 AM CDT 8:47 PM CDT
Civil Twilight 5:04 AM CDT 9:22 PM CDT
Nautical Twilight 4:18 AM CDT 10:07 PM CDT
Astronomical Twilight 3:23 AM CDT 11:02 PM CDT
Moon 6:18 AM CDT (7/19) 8:48 PM CDT (7/19)
Length of Visible Light 16h 17m
Length of Day
15h 07m
New Moon, 0% of the Moon is Illuminated
Jul 19
New Moon
Jul 26
First Quarter
Aug 1
Full
Aug 9
Last Quarter
Aug 17
New

Hourly Weather History & Observations

Time (CDT) Temp. Heat Index Dew Point Humidity Pressure Visibility Wind Dir Wind Speed Gust Speed Precip Events Conditions
12:15 AM 68.0 °F - 66.2 °F 94% 29.93 in 7.0 mi North 4.6 mph - N/A   Overcast
12:35 AM 68.0 °F - 66.2 °F 94% 29.94 in 7.0 mi NNW 4.6 mph - N/A   Overcast
12:55 AM 68.0 °F - 64.4 °F 88% 29.94 in 7.0 mi North 5.8 mph - N/A   Overcast
1:15 AM 68.0 °F - 64.4 °F 88% 29.94 in 10.0 mi North 5.8 mph - N/A   Overcast
1:35 AM 68.0 °F - 64.4 °F 88% 29.94 in 7.0 mi North 5.8 mph - N/A   Overcast
1:55 AM 68.0 °F - 64.4 °F 88% 29.94 in 7.0 mi North 3.5 mph - N/A   Overcast
2:15 AM 68.0 °F - 64.4 °F 88% 29.94 in 10.0 mi North 6.9 mph - N/A   Overcast
2:35 AM 68.0 °F - 64.4 °F 88% 29.94 in 10.0 mi North 5.8 mph - N/A   Overcast
2:55 AM 68.0 °F - 64.4 °F 88% 29.94 in 10.0 mi North 5.8 mph - N/A   Overcast
3:15 AM 68.0 °F - 64.4 °F 88% 29.94 in 10.0 mi North 5.8 mph - N/A   Overcast
3:35 AM 68.0 °F - 64.4 °F 88% 29.94 in 7.0 mi North 6.9 mph - N/A   Overcast
3:55 AM 68.0 °F - 64.4 °F 88% 29.94 in 7.0 mi NNE 4.6 mph - N/A   Overcast
4:15 AM 68.0 °F - 64.4 °F 88% 29.95 in 7.0 mi North 4.6 mph - N/A   Overcast
4:35 AM 68.0 °F - 64.4 °F 88% 29.96 in 10.0 mi NNE 4.6 mph - N/A   Overcast
4:55 AM 68.0 °F - 64.4 °F 88% 29.96 in 10.0 mi ENE 4.6 mph - N/A   Overcast
5:15 AM 66.2 °F - 62.6 °F 88% 29.97 in 10.0 mi NE 3.5 mph - N/A   Overcast
5:35 AM 66.2 °F - 62.6 °F 88% 29.97 in 10.0 mi NE 4.6 mph - N/A   Overcast
5:55 AM 66.2 °F - 62.6 °F 88% 29.97 in 10.0 mi NE 4.6 mph - N/A   Overcast
6:15 AM 66.2 °F - 62.6 °F 88% 29.98 in 10.0 mi ENE 3.5 mph - N/A   Overcast
6:35 AM 64.4 °F - 60.8 °F 88% 29.99 in 10.0 mi NE 4.6 mph - N/A   Overcast
6:55 AM 64.4 °F - 62.6 °F 94% 29.99 in 10.0 mi NE 4.6 mph - N/A   Overcast
7:15 AM 64.4 °F - 60.8 °F 88% 30.00 in 10.0 mi NE 4.6 mph - N/A   Overcast
7:35 AM 64.4 °F - 60.8 °F 88% 30.01 in 10.0 mi NE 5.8 mph - N/A   Overcast
7:55 AM 64.4 °F - 60.8 °F 88% 30.01 in 10.0 mi NE 4.6 mph - N/A   Overcast
8:15 AM 66.2 °F - 60.8 °F 83% 30.02 in 10.0 mi NE 5.8 mph - N/A   Overcast
8:35 AM 66.2 °F - 60.8 °F 83% 30.02 in 10.0 mi ENE 8.1 mph - N/A   Overcast
8:55 AM 66.2 °F - 60.8 °F 83% 30.03 in 10.0 mi ENE 5.8 mph - N/A   Overcast
9:15 AM 68.0 °F - 60.8 °F 78% 30.03 in 10.0 mi ENE 4.6 mph - N/A   Overcast
9:35 AM 69.8 °F - 60.8 °F 73% 30.03 in 10.0 mi NE 4.6 mph - N/A   Scattered Clouds
9:55 AM 69.8 °F - 60.8 °F 73% 30.03 in 10.0 mi NE 4.6 mph - N/A   Clear
10:15 AM 71.6 °F - 60.8 °F 69% 30.03 in 10.0 mi ENE 5.8 mph - N/A   Scattered Clouds
10:35 AM 73.4 °F - 60.8 °F 65% 30.04 in 10.0 mi NE 6.9 mph - N/A   Mostly Cloudy
10:55 AM 73.4 °F - 60.8 °F 65% 30.04 in 10.0 mi NNE 4.6 mph - N/A   Mostly Cloudy
11:15 AM 75.2 °F - 60.8 °F 61% 30.04 in 10.0 mi NE 4.6 mph - N/A   Scattered Clouds
11:35 AM 77.0 °F - 62.6 °F 61% 30.05 in 10.0 mi NE 8.1 mph - N/A   Scattered Clouds
12:15 PM 77.0 °F - 60.8 °F 57% 30.05 in 10.0 mi NNE 6.9 mph - N/A   Scattered Clouds
12:35 PM 77.0 °F - 60.8 °F 57% 30.05 in 10.0 mi North 6.9 mph - N/A   Scattered Clouds
12:55 PM 77.0 °F - 60.8 °F 57% 30.05 in 10.0 mi Calm Calm - N/A   Mostly Cloudy
1:15 PM 77.0 °F - 62.6 °F 61% 30.05 in 10.0 mi North 5.8 mph - N/A   Mostly Cloudy
1:35 PM 77.0 °F - 62.6 °F 61% 30.05 in 10.0 mi NE 5.8 mph - N/A   Mostly Cloudy
1:55 PM 77.0 °F - 62.6 °F 61% 30.05 in 10.0 mi NNE 5.8 mph - N/A   Overcast
2:15 PM 78.8 °F - 60.8 °F 54% 30.05 in 10.0 mi North 8.1 mph - N/A   Mostly Cloudy
2:35 PM 77.0 °F - 60.8 °F 57% 30.05 in 10.0 mi North 4.6 mph - N/A   Mostly Cloudy
2:55 PM 78.8 °F - 60.8 °F 54% 30.05 in 10.0 mi NE 6.9 mph - N/A   Mostly Cloudy
3:15 PM 78.8 °F - 60.8 °F 54% 30.05 in 10.0 mi NE 5.8 mph - N/A   Mostly Cloudy
3:35 PM 78.8 °F - 60.8 °F 54% 30.05 in 10.0 mi NE 8.1 mph - N/A   Scattered Clouds
3:55 PM 80.6 °F 81.5 °F 60.8 °F 51% 30.05 in 10.0 mi ENE 8.1 mph - N/A   Mostly Cloudy
4:15 PM 78.8 °F - 60.8 °F 54% 30.05 in 10.0 mi NNE 5.8 mph - N/A   Mostly Cloudy
4:35 PM 80.6 °F 81.5 °F 60.8 °F 51% 30.05 in 10.0 mi North 6.9 mph - N/A   Scattered Clouds
4:55 PM 80.6 °F 81.5 °F 60.8 °F 51% 30.05 in 10.0 mi NE 6.9 mph - N/A   Mostly Cloudy
5:15 PM 78.8 °F - 60.8 °F 54% 30.05 in 10.0 mi NE 8.1 mph - N/A   Mostly Cloudy
5:35 PM 80.6 °F 81.5 °F 60.8 °F 51% 30.05 in 10.0 mi NE 8.1 mph - N/A   Mostly Cloudy
5:55 PM 80.6 °F 81.5 °F 60.8 °F 51% 30.05 in 10.0 mi ENE 9.2 mph - N/A   Mostly Cloudy
6:15 PM 80.6 °F 81.1 °F 59.0 °F 48% 30.05 in 10.0 mi ENE 4.6 mph - N/A   Mostly Cloudy
6:35 PM 78.8 °F - 60.8 °F 54% 30.05 in 10.0 mi East 6.9 mph - N/A   Scattered Clouds
6:55 PM 78.8 °F - 60.8 °F 54% 30.05 in 10.0 mi NNE 6.9 mph - N/A   Clear
7:15 PM 78.8 °F - 60.8 °F 54% 30.05 in 10.0 mi NE 5.8 mph - N/A   Clear
7:35 PM 78.8 °F - 60.8 °F 54% 30.05 in 10.0 mi ENE 4.6 mph - N/A   Clear
7:55 PM 77.0 °F - 60.8 °F 57% 30.04 in 10.0 mi ENE 4.6 mph - N/A   Clear
8:15 PM 77.0 °F - 60.8 °F 57% 30.04 in 10.0 mi Calm Calm - N/A   Clear
8:35 PM 75.2 °F - 60.8 °F 61% 30.04 in 10.0 mi ENE 3.5 mph - N/A   Clear
8:55 PM 73.4 °F - 62.6 °F 69% 30.04 in 10.0 mi Calm Calm - N/A   Clear
9:15 PM 71.6 °F - 62.6 °F 73% 30.05 in 10.0 mi ENE 3.5 mph - N/A   Clear
9:35 PM 71.6 °F - 64.4 °F 78% 30.06 in 10.0 mi Calm Calm - N/A   Clear
9:55 PM 69.8 °F - 62.6 °F 78% 30.07 in 10.0 mi Calm Calm - N/A   Clear
10:15 PM 69.8 °F - 62.6 °F 78% 30.07 in 10.0 mi Calm Calm - N/A   Clear
10:35 PM 69.8 °F - 62.6 °F 78% 30.07 in 10.0 mi Calm Calm - N/A   Clear
10:55 PM 68.0 °F - 62.6 °F 83% 30.08 in 10.0 mi Calm Calm - N/A   Clear
11:15 PM 68.0 °F - 62.6 °F 83% 30.07 in 10.0 mi Calm Calm - N/A   Clear
11:35 PM 68.0 °F - 62.6 °F 83% 30.09 in 10.0 mi Calm Calm - N/A   Clear
11:55 PM 66.2 °F - 62.6 °F 88% 30.09 in 10.0 mi ESE 4.6 mph - N/A   Clear